Shawano, WI

9:39 PM CDT on May 28, 2017 (GMT -0500)
Shawano

Weather History for KEZS - February, 2013

Change the Weather History Date:

Thursday, February 21, 2013

  Actual Average (KCLI) Record (KCLI)
Temperature  
Mean Temperature 16 °F -  
Max Temperature 28 °F 34 °F 59 °F (2017)
Min Temperature 5 °F 12 °F -20 °F (1963)
Degree Days  
Heating Degree Days 48    
Moisture  
Dew Point 13 °F    
Average Humidity 75    
Maximum Humidity 86    
Minimum Humidity 64    
Precipitation  
Precipitation 0.00 in - - ()
Sea Level Pressure  
Sea Level Pressure 30.35 in    
Wind  
Wind Speed 6 mph (NE)    
Max Wind Speed 18 mph    
Max Gust Speed 25 mph    
Visibility 10 miles    
Events Snow    
Averages and records for this station are not official NWS values.
T = Trace of Precipitation, MM = Missing Value Source: NWS Daily Summary

Daily Weather History Graph

Daily Weather History Graph

Search for Another Location

Airport or City:

Trip Planner

Search our weather history database for the weather conditions in past years. The results will help you decide how hot, cold, wet, or windy it might be!

Date:

Astronomy

Feb. 21, 2013 Rise Set
Actual Time 6:44 AM CST 5:31 PM CST
Civil Twilight 6:15 AM CST 6:01 PM CST
Nautical Twilight 5:41 AM CST 6:35 PM CST
Astronomical Twilight 5:07 AM CST 7:08 PM CST
Moon 1:39 PM CST (2/21) 3:56 AM CST (2/21)
Length of Visible Light 11h 45m
Length of Day
10h 46m
Waxing Gibbous, 84% of the Moon is Illuminated
Feb 21
Waxing Gibbous
Feb 25
Full
Mar 4
Last Quarter
Mar 11
New
Mar 19
First Quarter

Hourly Weather History & Observations

Time (CST) Temp. Windchill Dew Point Humidity Pressure Visibility Wind Dir Wind Speed Gust Speed Precip Events Conditions
12:15 AM 10.4 °F - 3.2 °F 73% 30.39 in 10.0 mi Calm Calm - N/A   Clear
12:35 AM 10.4 °F - 3.2 °F 73% 30.39 in 10.0 mi Calm Calm - N/A   Clear
12:55 AM 8.6 °F - 3.2 °F 79% 30.41 in 10.0 mi Calm Calm - N/A   Clear
1:15 AM 8.6 °F - 3.2 °F 79% 30.41 in 10.0 mi Calm Calm - N/A   Clear
1:35 AM 8.6 °F - 3.2 °F 79% 30.41 in 10.0 mi Calm Calm - N/A   Clear
1:55 AM 6.8 °F - 3.2 °F 85% 30.42 in 10.0 mi Calm Calm - N/A   Clear
2:15 AM 5.0 °F -2.1 °F 1.4 °F 85% 30.42 in 10.0 mi NNW 3.5 mph - N/A   Scattered Clouds
2:35 AM 10.4 °F 4.0 °F 3.2 °F 73% 30.41 in 10.0 mi NW 3.5 mph - N/A   Mostly Cloudy
2:55 AM 10.4 °F 2.2 °F 3.2 °F 73% 30.41 in 10.0 mi NW 4.6 mph - N/A   Overcast
3:15 AM 10.4 °F 0.8 °F 3.2 °F 73% 30.41 in 10.0 mi NW 5.8 mph - N/A   Overcast
3:35 AM 12.2 °F 1.7 °F 3.2 °F 67% 30.41 in 10.0 mi NNW 6.9 mph - N/A Snow Light Snow
3:55 AM 10.4 °F 0.8 °F 3.2 °F 73% 30.42 in 10.0 mi NNW 5.8 mph - N/A   Overcast
4:15 AM 10.4 °F 2.2 °F 3.2 °F 73% 30.42 in 10.0 mi NNW 4.6 mph - N/A   Overcast
4:35 AM 10.4 °F 2.2 °F 3.2 °F 73% 30.43 in 10.0 mi North 4.6 mph - N/A   Overcast
4:55 AM 10.4 °F 2.2 °F 3.2 °F 73% 30.43 in 10.0 mi NNW 4.6 mph - N/A   Overcast
5:15 AM 10.4 °F 2.2 °F 3.2 °F 73% 30.44 in 10.0 mi NW 4.6 mph - N/A Snow Light Snow
5:35 AM 10.4 °F 4.0 °F 3.2 °F 73% 30.44 in 10.0 mi NW 3.5 mph - N/A Snow Light Snow
6:15 AM 12.2 °F 1.7 °F 5.0 °F 73% 30.44 in 10.0 mi North 6.9 mph - N/A Snow Light Snow
6:35 AM 10.4 °F -1.5 °F 5.0 °F 79% 30.43 in 10.0 mi North 8.1 mph - N/A   Overcast
6:55 AM 12.2 °F -0.2 °F 5.0 °F 73% 30.41 in 10.0 mi NNE 9.2 mph - N/A   Overcast
7:15 AM 12.2 °F -1.0 °F 6.8 °F 79% 30.38 in 10.0 mi NNE 10.4 mph - N/A   Overcast
7:35 AM 12.2 °F -1.8 °F 8.6 °F 85% 30.36 in 10.0 mi NNE 11.5 mph - N/A   Overcast
7:55 AM 14.0 °F 1.2 °F 10.4 °F 86% 30.35 in 10.0 mi NE 10.4 mph 17.3 mph N/A   Overcast
8:15 AM 15.8 °F 4.2 °F 10.4 °F 79% 30.38 in 10.0 mi NE 9.2 mph - N/A   Overcast
8:35 AM 17.6 °F - 10.4 °F 73% 30.44 in 10.0 mi Calm Calm - N/A   Overcast
8:55 AM 17.6 °F 10.7 °F 10.4 °F 73% 30.44 in 10.0 mi NNE 4.6 mph - N/A Snow Light Snow
9:35 AM 19.4 °F 12.8 °F 12.2 °F 74% 30.43 in 10.0 mi NNE 4.6 mph - N/A Snow Light Snow
9:55 AM 19.4 °F 11.5 °F 12.2 °F 74% 30.44 in 10.0 mi NNE 5.8 mph - N/A   Overcast
10:15 AM 19.4 °F 11.5 °F 14.0 °F 80% 30.42 in 10.0 mi NE 5.8 mph - N/A   Overcast
10:35 AM 21.2 °F 13.6 °F 14.0 °F 74% 30.42 in 10.0 mi NE 5.8 mph - N/A   Overcast
10:55 AM 21.2 °F 12.6 °F 14.0 °F 74% 30.42 in 10.0 mi ENE 6.9 mph - N/A   Overcast
11:15 AM 21.2 °F 12.6 °F 14.0 °F 74% 30.41 in 10.0 mi ENE 6.9 mph - N/A   Overcast
11:35 AM 23.0 °F 15.8 °F 14.0 °F 68% 30.42 in 10.0 mi East 5.8 mph - N/A   Overcast
11:55 AM 23.0 °F 15.8 °F 14.0 °F 68% 30.42 in 10.0 mi East 5.8 mph - N/A   Overcast
12:15 PM 23.0 °F 17.0 °F 14.0 °F 68% 30.41 in 10.0 mi ESE 4.6 mph - N/A   Overcast
12:35 PM 24.8 °F 20.5 °F 14.0 °F 64% 30.41 in 10.0 mi East 3.5 mph - N/A   Mostly Cloudy
12:55 PM 24.8 °F 20.5 °F 15.8 °F 69% 30.38 in 10.0 mi East 3.5 mph - N/A   Mostly Cloudy
1:15 PM 26.6 °F 20.0 °F 15.8 °F 64% 30.36 in 10.0 mi East 5.8 mph - N/A   Scattered Clouds
1:35 PM 26.6 °F 16.8 °F 15.8 °F 64% 30.35 in 10.0 mi East 10.4 mph - N/A   Clear
1:55 PM 26.6 °F 16.8 °F 17.6 °F 69% 30.34 in 10.0 mi East 10.4 mph - N/A   Clear
2:15 PM 26.6 °F 16.8 °F 17.6 °F 69% 30.32 in 10.0 mi East 10.4 mph - N/A   Clear
2:35 PM 26.6 °F 16.2 °F 17.6 °F 69% 30.31 in 10.0 mi East 11.5 mph - N/A   Clear
2:55 PM 26.6 °F 16.2 °F 17.6 °F 69% 30.30 in 10.0 mi East 11.5 mph - N/A   Clear
3:15 PM 26.6 °F 16.2 °F 17.6 °F 69% 30.30 in 10.0 mi East 11.5 mph - N/A   Clear
3:35 PM 26.6 °F 17.5 °F 17.6 °F 69% 30.31 in 10.0 mi East 9.2 mph - N/A   Scattered Clouds
3:55 PM 26.6 °F 16.8 °F 19.4 °F 74% 30.31 in 10.0 mi ENE 10.4 mph - N/A   Mostly Cloudy
4:15 PM 28.4 °F 22.2 °F 19.4 °F 69% 30.32 in 10.0 mi ENE 5.8 mph - N/A   Overcast
4:35 PM 28.4 °F 18.5 °F 19.4 °F 69% 30.31 in 10.0 mi ENE 11.5 mph - N/A   Overcast
4:55 PM 28.4 °F 19.7 °F 19.4 °F 69% 30.31 in 10.0 mi ENE 9.2 mph - N/A   Overcast
5:15 PM 26.6 °F 16.8 °F 19.4 °F 74% 30.31 in 10.0 mi East 10.4 mph - N/A   Overcast
5:35 PM 26.6 °F 15.7 °F 19.4 °F 74% 30.30 in 10.0 mi East 12.7 mph - N/A   Overcast
5:55 PM 26.6 °F 17.5 °F 19.4 °F 74% 30.30 in 10.0 mi East 9.2 mph - N/A   Overcast
6:15 PM 26.6 °F 17.5 °F 19.4 °F 74% 30.30 in 10.0 mi East 9.2 mph - N/A   Overcast
6:35 PM 26.6 °F 16.8 °F 21.2 °F 80% 30.29 in 10.0 mi East 10.4 mph - N/A   Overcast
6:55 PM 26.6 °F 14.7 °F 21.2 °F 80% 30.27 in 10.0 mi ENE 15.0 mph - N/A   Overcast
7:15 PM 26.6 °F 14.7 °F 21.2 °F 80% 30.27 in 10.0 mi ENE 15.0 mph 20.7 mph N/A   Overcast
7:35 PM 26.6 °F 13.4 °F 21.2 °F 80% 30.28 in 10.0 mi East 18.4 mph - N/A   Overcast
7:55 PM 24.8 °F 12.4 °F 21.2 °F 86% 30.26 in 10.0 mi ENE 15.0 mph 23.0 mph N/A   Overcast
8:15 PM 24.8 °F 11.1 °F 21.2 °F 86% 30.26 in 10.0 mi East 18.4 mph 23.0 mph N/A   Overcast
8:35 PM 26.6 °F 13.8 °F 21.2 °F 80% 30.26 in 10.0 mi ENE 17.3 mph 25.3 mph N/A   Overcast
9:15 PM 26.6 °F 13.4 °F 21.2 °F 80% 30.23 in 10.0 mi ENE 18.4 mph 21.9 mph N/A   Overcast
9:35 PM 26.6 °F 15.7 °F 21.2 °F 80% 30.23 in 10.0 mi ENE 12.7 mph 21.9 mph N/A   Overcast
9:55 PM 26.6 °F 14.7 °F 21.2 °F 80% 30.22 in 10.0 mi ENE 15.0 mph 20.7 mph N/A   Overcast
10:15 PM 26.6 °F 15.2 °F 21.2 °F 80% 30.20 in 10.0 mi ENE 13.8 mph - N/A   Overcast
10:35 PM 26.6 °F 14.3 °F 21.2 °F 80% 30.19 in 10.0 mi ENE 16.1 mph 19.6 mph N/A   Overcast
10:55 PM 24.8 °F 12.4 °F 21.2 °F 86% 30.17 in 10.0 mi ENE 15.0 mph - N/A   Overcast
11:15 PM 24.8 °F 14.0 °F 21.2 °F 86% 30.18 in 10.0 mi ENE 11.5 mph 21.9 mph N/A   Overcast
11:35 PM 24.8 °F 12.9 °F 21.2 °F 86% 30.17 in 10.0 mi ENE 13.8 mph 19.6 mph N/A   Overcast
11:55 PM 24.8 °F 12.9 °F 21.2 °F 86% 30.16 in 10.0 mi ENE 13.8 mph 19.6 mph N/A   Overcast